#timestamp,LO_Frequency,Hit,StdDev 
1592384415.4,286047000.7,N
1592384435.2,286047000.0,N
1592384455.0,286046998.5,N
1592384455.9,286046998.5,N
1592384475.8,286046996.8,N
1592384495.6,286046996.7,N
1592384515.5,286046996.6,N
1592384535.3,286046997.5,N
1592384555.1,286046994.9,N
1592384575.9,286046997.9,N
1592384595.7,286046997.3,N
1592384615.5,286046997.8,N
1592384635.4,286046995.0,N
1592384655.2,286046997.5,N
1592384675.1,286046999.5,N
1592384676.0,286046999.5,N
1592384695.8,286046995.0,N
1592384715.6,286046995.3,N
1592384735.5,286046995.5,N
1592384755.3,286046997.6,N
1592384775.1,286046997.5,N
1592384795.9,286046997.6,N
1592384815.7,286046997.6,N
1592384835.6,286046995.3,N
1592384855.4,286046997.7,N
1592384875.2,286046997.7,N
1592384895.1,286046999.6,N
1592384896.0,286046999.6,N
1592384915.8,286046997.0,N
1592384935.6,286046999.2,N
1592384955.5,286046999.5,N
1592384975.3,286046994.9,Y
1592384995.2,286047000.8,P
1592385015.9,286046999.0,N
1592385035.7,286046998.3,N
1592385055.6,286046998.7,N
1592385075.4,286046999.4,N
1592385095.2,286046998.3,N
1592385115.1,286046998.1,N
1592385116.0,286046998.1,N
1592385135.8,286046998.2,N
1592385155.7,286046998.5,N
1592385175.5,286046998.2,N
1592385195.3,286047000.9,N
1592385215.2,286047001.0,N
1592385235.9,286046998.1,N
1592385255.7,286047000.7,N
1592385275.6,286046998.5,N
1592385295.4,286047001.2,N
1592385315.3,286046998.5,N
1592385335.1,286047000.5,N
1592385336.0,286047000.5,N
1592385355.8,286047002.8,N
1592385375.7,286047000.7,N
1592385425.5,286046998.1,E
1592385435.5,286047000.7,N
1592385455.3,286047000.5,P
1592385475.1,286047002.8,P
1592385495.9,286046999.7,N
1592385515.7,286047001.6,N
1592385535.5,286047001.8,N
1592385555.4,286046999.9,N
1592385575.2,286047000.7,N
1592385595.1,286047000.9,N
1592385596.0,286047000.9,N
1592385615.8,286047000.2,N
1592385635.6,286047000.6,N
1592385655.5,286046998.1,N
1592385675.3,286046998.8,N
1592385695.1,286046998.6,N
1592385715.9,286046998.1,N
1592385735.7,286047000.2,N
1592385755.6,286046999.8,N
1592385775.4,286046999.9,N
1592385795.2,286047002.7,N
1592385815.1,286046999.7,N
1592385816.0,286046999.7,N
1592385835.8,286047000.2,N
1592385855.6,286047002.2,N
1592385875.5,286047002.4,N
1592385895.3,286047002.4,N
1592385915.2,286047000.1,N
1592385935.9,286047000.1,N
1592385955.7,286047000.0,N
1592385975.6,286046999.8,N
1592385995.4,286047000.3,N
1592386015.2,286047000.1,N
1592386035.1,286047002.3,N
1592386036.0,286047002.3,N
1592386055.8,286047002.2,N
1592386075.7,286046999.7,N
1592386095.5,286047000.0,N
1592386115.3,286047001.6,N
1592386135.2,286047002.0,N
1592386155.0,286047004.4,Y
1592386155.9,286047004.4,P
1592386175.7,286046999.9,N
1592386195.6,286047000.1,N
1592386215.4,286047000.1,N
1592386235.3,286047000.3,N
1592386255.1,286047000.3,N
1592386256.0,286047000.3,N
1592386275.8,286047002.8,N
1592386295.7,286047000.1,N
1592386315.5,286047001.0,N
1592386335.3,286047000.0,N
1592386355.2,286047000.4,N
1592386375.0,286047000.6,N
1592386375.9,286047000.6,N
1592386395.8,286046999.9,N
1592386415.6,286047000.9,N
1592386435.4,286047000.1,N
1592386455.3,286047000.4,N
1592386475.1,286047000.3,N
1592386495.9,286046998.5,N
1592386515.7,286047000.0,N
1592386535.5,286046999.7,N
1592386555.4,286047002.3,N
1592386575.2,286046999.7,N
1592386595.0,286046999.9,N
1592386595.9,286046999.9,N
1592386615.8,286047000.2,N
1592386635.6,286046999.7,N
1592386655.5,286047001.6,N
1592386675.3,286047000.2,N
1592386695.1,286047003.4,Y
1592386715.9,286047002.3,P
1592386735.7,286047002.3,N
1592386755.5,286047002.1,N
1592386775.4,286047001.5,N
1592386795.2,286047002.6,Y
1592386815.1,286046998.8,P
1592386816.0,286046998.8,N
1592386835.8,286047000.1,N
1592386855.6,286046999.9,N
1592386875.5,286047000.3,N
1592386895.3,286046999.8,N
1592386915.2,286047000.5,N
1592386935.9,286046998.3,N
1592386955.7,286046999.4,N
1592386975.6,286046998.9,N
1592386995.4,286046996.5,Y
1592387015.3,286046997.0,P
1592387035.1,286046996.6,N
1592387036.0,286046996.6,N
1592387055.8,286046999.1,N
1592387075.7,286046999.1,N
1592387095.5,286046998.1,N
1592387115.3,286046998.9,N
1592387135.2,286046998.3,N
1592387155.0,286046998.3,N
1592387155.9,286046998.3,N
1592387175.8,286046998.1,N
1592387195.6,286046998.2,N
1592387215.4,286047001.2,N
1592387235.3,286046998.4,N
1592387255.1,286046999.5,N
1592387275.8,286046999.1,N
1592387295.7,286046999.3,N
1592387315.5,286046999.1,N
1592387335.4,286046999.1,N
1592387355.2,286046999.0,N
1592387375.0,286046999.0,N
1592387375.9,286046999.0,N
1592387395.8,286046999.1,N
1592387415.6,286046999.3,N
1592387435.4,286046999.0,N
1592387455.3,286046999.1,N
1592387475.1,286046999.6,N
1592387495.9,286046997.0,Y
1592387515.7,286046997.7,P
1592387535.5,286046997.0,P
1592387555.4,286046997.1,P
1592387575.2,286046995.3,Y
1592387595.0,286046999.6,P
1592387595.9,286046999.6,N
1592387615.8,286046996.8,P
1592387635.6,286046996.7,N
1592387655.5,286046999.0,N
1592387675.3,286046999.4,N
1592387695.1,286046999.5,N
1592387715.9,286046998.9,N
1592387735.7,286046999.2,N
1592387755.5,286046996.9,N
1592387775.4,286046998.6,N
1592387795.2,286046999.5,N
1592387815.1,286046999.4,N
1592387816.0,286046999.4,N
1592387835.8,286046998.4,N
1592387855.6,286046998.9,N
1592387875.5,286046997.1,N
1592387895.3,286046997.5,N
1592387915.1,286046997.1,N
1592387935.9,286046997.8,N
1592387955.7,286046997.3,N
1592387975.6,286046997.5,N
1592387995.4,286046997.7,N
